Wind_Speed
47 47 47 46 44 43 43 43 43 42 42 42 42 41 40 40 39 39 38 38 37 36 36 36 36 36 35 35 35 35 34 34 35 35 35 34 34 34 35 35 36 36 37 37
47 48 46 46 45 45 45 44 43 43 44 43 43 43 41 42 41 40 39 39 38 38 38 37 37 37 37 37 37 37 36 36 36 36 35 36 36 36 36 37 37 37 38 38
47 46 45 46 46 46 46 45 44 44 44 45 45 45 43 43 42 41 41 40 40 40 39 38 38 38 38 38 38 38 38 38 37 37 37 37 38 38 38 38 38 38 39 40
45 45 46 47 47 46 46 45 44 44 45 45 46 46 44 43 43 42 42 42 41 41 41 40 39 39 39 39 39 39 39 39 39 39 39 39 39 39 39 39 40 40 41 41
45 45 46 46 45 45 45 44 44 44 45 47 46 48 45 44 43 42 42 42 42 41 41 41 40 40 40 40 40 40 40 40 41 41 40 40 40 40 40 41 41 42 42 42
44 44 45 45 44 45 44 44 44 45 46 48 46 47 46 44 43 42 42 42 42 42 42 42 41 41 41 41 41 41 41 42 42 42 42 41 41 42 42 42 43 42 42 42
42 43 44 44 44 44 44 44 44 45 47 48 45 47 46 43 43 42 42 42 42 43 42 42 42 42 42 42 42 42 42 43 43 43 43 43 42 43 43 43 44 44 43 43
42 43 43 43 43 43 44 44 44 45 47 47 45 46 44 42 42 43 43 42 42 43 43 43 43 43 43 43 43 43 43 43 43 43 43 43 43 44 44 44 45 45 44 44
42 43 43 43 42 43 43 43 43 44 46 46 47 46 45 42 41 42 43 42 41 41 42 42 43 43 42 42 43 43 43 43 44 43 44 44 44 44 45 45 46 46 46 46
40 42 42 43 43 44 44 43 43 45 46 46 47 46 45 43 42 42 43 42 40 40 40 41 42 42 42 42 43 43 43 43 44 44 44 44 44 45 46 46 47 47 47 48
39 40 41 42 43 42 43 44 45 45 46 46 46 46 44 43 42 41 41 41 40 40 41 41 41 41 41 42 43 43 43 44 44 44 44 44 44 45 46 47 47 48 48 49
37 38 40 40 40 41 42 43 44 45 45 45 46 45 43 42 42 41 42 41 40 41 41 41 41 41 41 42 43 43 43 44 44 44 44 44 45 46 46 47 47 48 49 49
35 37 38 39 40 41 42 42 43 44 45 45 45 45 43 43 42 41 41 41 41 41 41 41 41 41 42 42 42 42 43 43 44 44 44 45 46 46 47 47 48 49 49 49
37 38 39 38 39 40 41 41 42 44 46 45 45 44 43 43 42 41 41 41 41 41 41 40 41 40 41 41 42 42 42 43 43 44 44 45 46 47 47 48 48 48 48 48
36 38 39 39 39 39 40 40 42 44 45 45 44 43 43 43 42 40 40 40 39 39 39 40 40 41 41 41 42 42 42 42 43 43 44 45 46 47 47 48 48 47 47 47
35 36 37 38 40 39 39 40 41 42 43 43 43 43 42 42 42 40 39 39 39 38 38 38 39 40 40 40 41 42 42 42 42 43 44 45 46 46 47 47 47 47 47 47
34 34 34 36 39 41 41 39 39 39 40 41 42 40 40 40 39 39 38 38 38 38 37 37 38 39 39 40 40 41 41 42 42 43 44 45 46 46 46 46 46 46 47 47
33 34 34 34 35 38 38 38 38 38 38 39 40 39 39 40 39 39 39 39 38 38 38 38 38 38 39 40 40 40 41 42 43 43 44 45 45 46 46 46 47 47 47 48
30 31 32 33 33 35 35 35 36 37 37 37 38 39 39 40 40 40 39 40 40 39 39 39 39 39 40 41 41 41 41 42 42 43 44 45 46 46 45 45 46 47 47 47
29 30 31 31 33 33 33 32 33 35 36 36 37 37 38 39 40 39 39 40 41 40 40 40 40 41 41 42 42 43 43 43 43 44 44 45 45 45 45 45 46 46 47 47
28 29 30 30 31 32 32 31 32 33 34 35 36 37 37 37 38 38 38 39 40 41 41 41 41 42 42 42 42 42 42 42 42 43 43 43 43 43 44 44 45 46 46 46
25 27 29 30 31 31 30 30 31 31 32 33 34 35 36 36 36 37 37 38 39 40 41 41 41 41 41 42 42 42 42 42 42 42 42 42 42 42 43 44 44 43 43 44
25 27 28 30 30 30 29 29 30 31 31 32 33 34 35 35 36 36 37 38 38 39 40 40 41 41 41 41 41 42 42 42 41 41 41 41 41 41 41 42 41 42 42 42
26 26 28 29 29 29 29 30 31 31 32 32 33 33 34 35 35 36 37 37 37 37 38 39 40 40 40 40 40 40 40 40 39 40 40 40 40 40 40 40 40 40 41 41
25 27 27 27 28 30 31 31 32 33 33 32 32 32 33 34 34 34 34 34 34 35 36 36 37 38 38 37 38 38 38 38 38 38 38 38 38 38 38 38 38 38 39 39
25 26 27 26 27 28 28 29 29 30 30 31 30 30 31 32 32 31 31 32 32 33 33 34 35 35 35 36 36 36 36 37 36 36 36 36 36 36 36 36 36 37 37 37
Wind_Direction
230 230 230 232 234 235 236 237 238 239 239 240 241 241 241 241 242 243 245 247 248 249 249 250 251 252 253 254 255 256 257 259 259 260 262 264 265 267 268 269 270 272 273 274
230 230 230 232 233 233 235 237 239 240 241 242 242 242 241 242 244 245 246 248 249 250 251 251 252 253 254 255 256 256 257 259 260 261 262 264 265 266 268 269 271 273 274 276
232 232 230 232 232 233 235 237 239 242 242 243 244 243 242 244 245 246 248 249 249 250 252 253 254 254 255 256 257 257 258 259 260 262 263 264 265 267 268 270 272 274 276 277
231 231 231 232 233 234 236 238 241 243 244 244 245 246 242 244 246 246 248 250 251 252 253 254 255 256 256 256 257 258 259 259 261 262 263 264 266 268 269 270 272 274 276 277
230 230 231 233 234 235 237 238 241 243 245 246 246 248 244 245 246 247 248 250 251 253 254 254 255 256 257 257 258 259 259 259 260 262 263 264 266 267 269 270 272 274 276 277
231 230 231 232 234 236 238 239 241 243 244 246 246 249 247 245 247 248 249 250 252 253 254 255 255 256 257 258 259 260 260 260 261 262 263 265 266 268 269 271 272 274 275 277
232 232 232 232 233 234 237 238 240 242 243 246 247 249 250 248 249 249 250 251 252 253 254 255 256 257 258 259 260 260 260 260 261 262 264 265 266 268 270 271 273 274 275 277
234 234 233 232 233 235 236 238 240 243 245 246 246 249 250 250 250 251 251 252 253 254 255 256 257 258 258 258 259 259 260 261 261 262 263 265 267 268 270 272 273 274 275 276
236 236 234 234 235 235 236 238 240 243 246 248 248 249 250 251 250 251 252 253 254 255 256 256 258 259 259 258 259 259 259 260 261 263 264 266 267 268 270 271 273 274 275 277
237 238 237 236 236 236 237 238 239 241 244 247 250 250 251 251 252 253 254 254 255 257 257 258 259 259 259 258 258 259 259 260 261 263 265 267 269 269 270 272 273 274 275 277
236 239 238 238 237 237 237 238 239 242 244 246 250 251 252 254 254 254 254 255 256 257 257 259 259 259 259 259 259 259 259 260 261 263 266 268 269 270 271 272 273 275 276 277
235 237 239 239 240 239 238 239 239 241 243 245 249 251 252 255 256 256 256 256 256 257 258 259 259 259 259 259 259 259 260 261 261 263 265 267 269 271 272 273 274 275 277 278
233 235 238 239 239 239 238 238 239 240 243 245 247 251 252 255 257 257 257 257 257 257 258 259 258 259 258 258 259 260 261 262 262 264 265 268 270 271 272 274 275 276 277 279
234 236 237 239 241 240 240 238 238 239 241 244 247 250 252 254 256 257 257 256 256 256 257 258 258 258 258 258 259 260 261 262 263 264 266 268 270 271 273 275 276 277 278 279
235 237 238 239 240 240 240 239 239 240 242 245 248 250 251 253 255 256 256 256 256 255 255 256 256 257 257 257 258 259 260 262 264 265 267 269 270 272 273 274 276 277 277 278
235 237 239 240 239 241 240 239 240 240 242 244 246 248 250 252 254 254 254 255 255 255 255 255 256 255 256 257 258 258 260 263 265 267 269 270 271 273 274 275 276 276 277 278
236 237 238 238 239 241 242 241 242 243 243 245 246 248 248 249 251 251 251 253 254 254 254 255 255 254 255 257 259 260 262 264 266 268 270 272 272 273 274 275 275 276 277 278
237 237 238 238 238 241 242 243 244 244 244 245 246 246 247 249 251 252 252 253 253 254 255 256 257 256 257 258 259 261 263 265 267 269 271 272 272 273 274 274 275 276 277 278
237 238 239 240 240 242 242 245 247 247 246 246 248 247 248 250 252 252 253 254 254 255 258 258 259 258 259 260 262 263 265 266 268 269 270 272 273 273 273 274 276 277 278 279
237 238 240 242 244 245 244 246 249 249 248 247 249 250 251 251 251 252 253 255 256 257 259 260 260 260 260 261 263 265 266 267 268 269 271 272 273 273 274 274 276 277 278 280
239 242 244 246 248 249 248 249 250 251 251 251 252 253 254 253 253 253 254 254 255 256 257 259 260 261 261 262 263 265 266 267 269 270 271 272 273 274 274 276 277 278 279 281
240 243 245 247 248 248 251 251 249 250 250 250 252 253 254 254 254 254 254 254 254 255 257 259 260 261 262 263 263 264 265 267 268 269 271 272 273 274 276 277 278 279 281 282
242 242 243 244 246 247 249 250 250 250 251 250 251 251 252 254 254 255 255 255 255 256 257 258 260 261 262 263 264 264 264 266 267 268 270 272 273 275 277 277 278 280 282 283
243 241 243 244 246 247 248 249 251 252 252 252 251 252 253 254 255 256 256 256 256 257 257 259 260 261 262 263 264 264 264 265 267 268 270 272 274 275 277 278 279 281 282 284
241 242 244 245 246 249 250 252 253 252 252 252 251 251 253 254 254 255 255 255 256 257 258 259 261 262 263 263 263 264 265 266 268 270 271 272 273 275 277 278 280 281 282 284
244 244 244 245 245 248 250 251 252 252 252 252 252 252 252 254 254 255 255 255 257 258 259 260 261 262 263 263 264 264 265 266 268 270 271 272 273 275 276 277 279 281 283 285
Height
5662 5669 5675 5682 5688 5694 5698 5702 5707 5711 5715 5719 5723 5728 5732 5736 5739 5743 5747 5750 5753 5756 5759 5761 5763 5766 5768 5770 5772 5774 5775 5777 5778 5779 5781 5782 5783 5784 5785 5785 5785 5786 5786 5786
5653 5659 5669 5673 5678 5684 5688 5693 5698 5702 5706 5710 5714 5719 5724 5727 5731 5735 5739 5742 5745 5748 5751 5753 5756 5758 5760 5762 5764 5766 5767 5769 5771 5772 5773 5774 5775 5776 5777 5777 5777 5777 5777 5777
5644 5654 5660 5664 5669 5674 5679 5685 5690 5693 5697 5700 5704 5710 5715 5719 5723 5727 5730 5733 5737 5739 5742 5745 5747 5750 5752 5754 5755 5757 5759 5761 5762 5764 5765 5766 5767 5768 5768 5769 5769 5769 5768 5768
5635 5644 5649 5654 5660 5666 5671 5677 5680 5684 5687 5691 5696 5699 5707 5711 5714 5718 5722 5725 5728 5731 5734 5737 5739 5741 5743 5745 5747 5748 5750 5752 5753 5755 5756 5758 5758 5759 5760 5760 5760 5760 5759 5758
5627 5635 5640 5646 5653 5658 5663 5668 5672 5675 5678 5681 5686 5689 5698 5701 5705 5710 5713 5716 5719 5722 5725 5728 5730 5732 5734 5736 5737 5739 5741 5742 5744 5745 5747 5748 5749 5750 5751 5750 5750 5750 5750 5749
5619 5625 5631 5638 5644 5649 5654 5658 5662 5665 5667 5672 5678 5680 5687 5693 5697 5701 5704 5707 5710 5713 5715 5718 5721 5722 5724 5726 5728 5730 5731 5732 5734 5736 5737 5739 5740 5740 5741 5741 5740 5740 5740 5739
5611 5616 5622 5629 5635 5639 5644 5649 5653 5655 5657 5663 5670 5671 5677 5684 5687 5691 5695 5698 5701 5703 5706 5708 5711 5713 5715 5716 5718 5719 5721 5722 5724 5726 5727 5728 5729 5730 5730 5730 5730 5730 5729 5728
5602 5608 5614 5620 5626 5631 5635 5640 5645 5648 5651 5656 5660 5662 5670 5675 5677 5680 5684 5688 5691 5693 5696 5698 5700 5702 5704 5706 5707 5709 5711 5712 5714 5715 5717 5718 5719 5719 5720 5719 5719 5719 5718 5717
5594 5600 5606 5612 5617 5622 5626 5630 5637 5639 5642 5645 5649 5654 5660 5665 5668 5671 5674 5678 5681 5683 5685 5687 5690 5692 5693 5695 5696 5698 5700 5701 5703 5705 5706 5707 5708 5708 5708 5708 5708 5707 5707 5706
5586 5591 5597 5602 5607 5611 5618 5623 5626 5629 5632 5636 5641 5646 5650 5655 5658 5662 5664 5668 5671 5673 5675 5677 5679 5681 5682 5684 5685 5687 5689 5691 5693 5694 5695 5696 5697 5697 5697 5697 5696 5696 5695 5694
5578 5583 5588 5593 5598 5604 5609 5613 5616 5620 5624 5629 5632 5639 5641 5645 5648 5651 5654 5657 5660 5663 5664 5666 5668 5670 5671 5672 5674 5676 5678 5680 5682 5683 5684 5685 5685 5686 5686 5685 5685 5684 5683 5682
5570 5574 5579 5585 5590 5594 5599 5603 5608 5613 5616 5620 5623 5629 5632 5635 5638 5641 5644 5647 5650 5652 5654 5656 5657 5659 5660 5662 5664 5666 5668 5670 5671 5673 5673 5674 5675 5675 5674 5674 5673 5672 5671 5670
5562 5566 5571 5575 5581 5585 5589 5594 5599 5603 5607 5610 5614 5620 5623 5625 5628 5630 5633 5636 5639 5641 5644 5645 5647 5648 5650 5652 5654 5655 5657 5659 5661 5662 5663 5663 5663 5663 5663 5662 5661 5660 5659 5658
5554 5558 5563 5567 5570 5576 5581 5586 5590 5593 5596 5601 5605 5610 5613 5616 5618 5620 5623 5626 5628 5631 5633 5635 5636 5638 5640 5642 5643 5645 5647 5648 5650 5651 5652 5652 5652 5652 5651 5651 5650 5649 5647 5646
5545 5550 5554 5558 5562 5566 5571 5576 5580 5584 5588 5592 5597 5600 5603 5605 5608 5611 5613 5616 5618 5620 5622 5624 5626 5628 5630 5632 5633 5635 5636 5638 5639 5640 5641 5641 5641 5640 5640 5639 5638 5637 5635 5634
5538 5542 5546 5550 5554 5558 5562 5567 5571 5575 5579 5583 5586 5590 5594 5596 5598 5601 5603 5606 5608 5611 5612 5614 5616 5618 5620 5622 5623 5625 5626 5627 5628 5629 5629 5629 5629 5629 5628 5627 5626 5625 5624 5622
5530 5535 5539 5543 5546 5549 5554 5560 5564 5567 5571 5574 5577 5582 5584 5586 5589 5592 5594 5597 5599 5601 5603 5605 5607 5608 5610 5612 5613 5614 5616 5617 5618 5618 5618 5618 5618 5617 5616 5615 5614 5613 5612 5610
5523 5527 5530 5534 5539 5543 5550 5552 5555 5558 5562 5565 5568 5571 5575 5577 5580 5582 5585 5587 5590 5592 5594 5596 5597 5599 5600 5602 5603 5604 5606 5606 5607 5607 5607 5607 5606 5605 5604 5603 5602 5601 5600 5598
5517 5520 5523 5527 5530 5534 5540 5544 5547 5550 5553 5556 5559 5562 5565 5568 5570 5573 5575 5577 5579 5582 5584 5586 5587 5589 5590 5592 5593 5594 5595 5595 5596 5596 5596 5595 5594 5593 5592 5591 5590 5589 5587 5586
5511 5513 5517 5520 5523 5527 5533 5536 5538 5541 5544 5547 5549 5552 5556 5558 5561 5563 5565 5567 5570 5572 5574 5575 5577 5578 5580 5581 5582 5583 5584 5584 5585 5585 5584 5584 5582 5582 5581 5580 5578 5577 5575 5573
5504 5507 5510 5513 5516 5519 5524 5527 5530 5534 5537 5538 5540 5543 5545 5548 5551 5553 5555 5557 5559 5561 5563 5565 5566 5568 5569 5570 5571 5572 5573 5573 5573 5573 5573 5572 5571 5570 5569 5568 5567 5565 5563 5561
5498 5501 5504 5506 5509 5515 5516 5519 5522 5524 5526 5528 5531 5533 5536 5538 5541 5543 5545 5547 5549 5551 5553 5554 5555 5557 5558 5559 5560 5561 5561 5562 5562 5561 5561 5561 5560 5559 5558 5557 5555 5554 5552 5550
5492 5495 5497 5501 5505 5506 5509 5511 5513 5515 5517 5519 5522 5524 5527 5529 5531 5533 5535 5537 5539 5541 5542 5544 5545 5546 5547 5548 5548 5549 5550 5550 5550 5550 5550 5550 5549 5548 5547 5545 5544 5543 5541 5539
5486 5488 5491 5493 5496 5498 5501 5503 5505 5507 5509 5511 5513 5515 5518 5520 5522 5523 5525 5527 5529 5530 5532 5533 5534 5535 5536 5537 5537 5538 5538 5539 5539 5540 5539 5539 5538 5537 5536 5535 5533 5532 5530 5528
5480 5482 5484 5486 5489 5491 5493 5495 5497 5499 5500 5502 5504 5507 5509 5511 5513 5514 5516 5517 5519 5520 5522 5523 5524 5525 5526 5526 5526 5527 5528 5528 5529 5529 5529 5528 5528 5527 5526 5525 5523 5521 5519 5517
5474 5476 5478 5480 5482 5484 5486 5487 5489 5491 5492 5494 5496 5498 5500 5502 5504 5505 5506 5508 5509 5511 5512 5513 5514 5515 5515 5516 5516 5517 5517 5518 5518 5519 5518 5518 5517 5517 5516 5514 5513 5510 5508 5506